CAPE
0 0 0 0 0 0 0 0 0 0 0 0 0 1 3 1 0 0 0 0 0 0 0 0 0 0 0 0 0 1 0 0 4 0 0 0 0 1
0 1 1 0 0 0 0 0 0 0 0 0 0 0 1 0 0 0 1 0 0 0 0 0 0 0 0 0 0 0 0 2 11 17 9 0 0 21
2 2 1 0 1 0 0 0 0 0 0 0 0 1 0 0 0 0 1 0 0 0 0 0 0 0 0 0 0 0 2 0 2 14 27 10 5 0
1 1 2 0 0 0 0 0 0 0 0 0 0 0 0 1 0 0 0 0 0 0 0 0 0 0 0 0 1 1 0 0 2 0 2 16 11 13
0 2 0 1 0 0 0 2 0 0 0 0 0 0 0 1 0 0 0 0 0 0 0 0 0 0 0 0 0 1 1 0 0 0 1 11 18 22
0 0 1 1 0 0 4 9 2 0 0 0 0 0 0 0 0 0 0 0 0 0 0 0 0 0 0 0 0 0 1 0 0 0 0 0 8 32
1 1 1 2 0 0 3 8 7 0 0 1 0 0 0 0 0 0 0 0 0 0 0 0 0 0 0 0 0 1 1 0 0 0 0 0 0 7
0 1 0 0 0 0 0 0 10 5 9 1 0 0 0 1 1 0 0 0 0 0 0 0 0 0 0 0 0 0 0 1 0 0 0 0 0 0
0 0 2 0 0 1 0 0 0 0 6 2 2 0 1 0 0 0 0 0 0 0 0 0 0 0 0 0 0 0 0 1 0 0 0 0 0 0
5 0 1 0 0 0 1 0 6 1 0 2 3 0 0 0 0 0 0 0 0 0 0 0 0 0 0 0 0 0 0 0 1 0 0 0 0 0
0 0 0 0 0 1 0 0 0 0 0 1 0 0 0 0 0 0 0 0 0 0 0 0 0 0 0 0 0 0 0 1 1 1 1 0 0 0
1 1 1 1 1 0 0 0 0 1 0 2 1 0 0 0 0 0 0 0 0 0 0 0 0 0 0 0 0 0 0 0 0 2 2 1 0 0
0 0 0 0 0 0 2 2 0 2 0 1 3 2 2 1 1 0 0 0 0 0 0 0 0 0 0 0 0 0 0 0 0 0 0 0 1 0
1 1 1 0 0 0 0 0 2 0 0 0 1 1 1 2 2 0 0 0 0 0 0 0 0 0 0 0 0 0 0 0 0 0 0 0 0 0
1 0 0 0 0 0 0 0 1 0 0 0 1 2 2 3 4 0 0 0 0 0 0 0 0 0 0 0 0 0 0 0 0 0 0 0 0 0
1 1 1 0 0 0 0 0 0 0 0 0 1 2 0 2 3 2 0 0 0 0 0 0 0 0 0 0 0 0 0 0 0 0 0 0 0 0
0 0 0 0 1 0 0 0 0 0 0 1 1 1 2 2 2 3 1 2 0 1 0 0 0 0 0 0 0 0 0 0 0 0 0 0 0 0
0 0 0 2 1 2 1 1 0 0 0 0 0 1 2 2 2 4 3 1 0 0 0 0 0 0 0 0 0 0 0 0 0 0 0 0 0 0
0 0 0 1 0 0 1 5 5 0 0 0 0 0 1 1 2 2 1 4 2 0 1 0 0 0 0 0 0 0 0 0 0 0 0 0 0 0
0 1 1 0 1 1 1 1 2 2 0 0 1 1 0 1 1 0 2 1 2 3 1 0 0 0 0 0 0 0 0 0 0 0 0 0 0 0
3 1 0 0 1 0 1 2 1 2 2 0 1 1 1 1 1 2 3 4 2 1 0 0 0 0 0 0 0 0 0 0 0 0 0 0 0 0
1 1 1 1 0 0 0 1 1 1 2 1 0 0 1 1 1 2 2 2 2 1 3 1 0 0 0 0 0 0 0 0 1 2 0 0 0 0
1 2 1 1 1 1 1 1 1 1 3 0 0 0 1 1 1 1 3 3 2 2 1 1 0 1 0 0 0 0 0 0 0 0 0 0 0 0
CIN
-0 -0 -0 -0 -0 -0 -0 -0 -0 -0 -0 -0 -0 -0 -0 -0 -0 -0 -0 -0 -0 -0 -0 -0 -0 -0 -0 -0 -1 -0 -0 -0 -3 -0 -0 -0 -0 -1
-0 -0 -0 -0 -0 -0 -0 -0 -0 -0 -0 -0 -0 -0 -0 -0 -0 -0 -0 -0 -0 -0 -0 -0 -0 -0 -0 -0 -0 -0 -0 -0 -2 -1 -0 -0 -0 -5
-0 -0 -0 -0 -2 -0 -0 -0 -0 -0 -0 -0 -0 -0 -0 -0 -0 -0 -0 -0 -0 -0 -0 -0 -0 -0 -0 -0 -0 -0 -0 -0 -10 -2 -0 -0 -13 -0
-0 -0 -0 -0 -0 -0 -0 -0 -0 -0 -0 -0 -0 -0 -0 -0 -0 -0 -0 -0 -0 -0 -0 -0 -0 -0 -0 -0 -1 -1 -0 -0 -9 -0 -3 -2 -5 -6
-29 -17 -0 -0 -0 -0 -21 -126 -2 -0 -0 -0 -0 -0 -0 -0 -0 -0 -0 -0 -0 -0 -0 -0 -0 -0 -0 -0 -0 -1 -0 -0 -0 -0 -12 -7 -1 -3
-0 -0 -0 -0 -0 -0 -173 -146 -159 -0 -0 -0 -0 -0 -0 -0 -0 -0 -0 -0 -0 -0 -0 -0 -0 -0 -0 -0 -0 -0 -0 -0 -0 -0 -0 -2 -12 -0
-0 -0 -0 -18 -0 -0 -178 -165 -178 -0 -0 -0 -0 -0 -0 -0 -0 -0 -0 -0 -0 -0 -0 -0 -0 -0 -0 -0 -0 -0 -0 -0 -0 -0 -0 -0 -2 -4
-0 -0 -101 -0 -0 -0 -0 -0 -145 -133 -149 -170 -0 -0 -0 -0 -0 -0 -0 -0 -0 -0 -0 -0 -0 -0 -0 -0 -0 -0 -0 -0 -0 -0 -0 -0 -0 -0
-0 -0 -4 -0 -51 -49 -10 -0 -0 -0 -104 -170 -35 -0 -0 -0 -0 -0 -0 -0 -0 -0 -0 -0 -0 -0 -0 -0 -0 -0 -0 -0 -0 -0 -0 -0 -0 -0
-36 -14 -11 -0 -0 -0 -59 -37 -81 -0 -36 -73 -75 -0 -0 -0 -0 -0 -0 -0 -0 -0 -0 -0 -0 -0 -0 -0 -0 -0 -0 -0 -0 -0 -0 -0 -0 -0
-0 -0 -0 -0 -8 -70 -29 -13 -0 -0 -0 -0 -0 -0 -0 -0 -0 -0 -0 -0 -0 -0 -0 -0 -0 -0 -0 -0 -0 -0 -0 -0 -0 -0 -0 -0 -0 -0
-0 -0 -0 -0 -0 -0 -0 -0 -0 -0 -0 -0 -0 -0 -0 -0 -0 -0 -0 -0 -0 -0 -0 -0 -0 -0 -0 -0 -0 -0 -0 -0 -0 -0 -0 -0 -0 -0
-0 -0 -0 -0 -0 -0 -0 -0 -0 -0 -0 -0 -0 -0 -0 -0 -0 -0 -0 -0 -0 -0 -0 -0 -0 -0 -0 -0 -0 -0 -0 -0 -0 -0 -0 -0 -0 -0
-0 -0 -0 -0 -0 -0 -0 -0 -0 -0 -0 -0 -0 -0 -0 -0 -0 -0 -0 -0 -0 -0 -0 -0 -0 -0 -0 -0 -0 -0 -0 -0 -0 -0 -0 -0 -0 -0
-0 -0 -0 -0 -0 -0 -0 -0 -0 -0 -0 -0 -0 -0 -0 -0 -0 -0 -0 -0 -0 -0 -0 -0 -0 -0 -0 -0 -0 -0 -0 -0 -0 -0 -0 -0 -0 -0
-0 -0 -0 -0 -0 -0 -0 -0 -0 -0 -0 -0 -0 -0 -0 -0 -0 -0 -0 -0 -0 -0 -0 -0 -0 -0 -0 -0 -0 -0 -0 -0 -0 -0 -0 -0 -0 -0
-0 -0 -0 -0 -0 -0 -0 -0 -0 -0 -0 -0 -0 -0 -0 -0 -0 -0 -0 -0 -0 -0 -0 -0 -0 -0 -0 -0 -0 -0 -0 -0 -0 -0 -0 -0 -0 -0
-0 -0 -0 -0 -0 -1 -0 -0 -0 -0 -0 -0 -0 -0 -0 -0 -0 -0 -0 -0 -0 -0 -0 -0 -0 -0 -0 -0 -0 -0 -0 -0 -0 -0 -0 -0 -0 -0
-0 -0 -0 -0 -0 -0 -0 -0 -0 -0 -0 -0 -0 -0 -0 -0 -0 -0 -0 -0 -0 -0 -0 -0 -0 -0 -0 -0 -0 -0 -0 -0 -0 -0 -0 -0 -0 -0
-0 -0 -0 -0 -0 -0 -0 -0 -0 -5 -0 -0 -0 -0 -0 -0 -0 -0 -0 -0 -0 -0 -0 -0 -0 -0 -0 -0 -0 -0 -0 -0 -0 -0 -0 -0 -0 -0
-0 -0 -0 -0 -0 -0 -0 -0 -0 -0 -0 -0 -0 -0 -0 -0 -0 -0 -0 -0 -0 -0 -0 -0 -0 -0 -0 -0 -0 -0 -0 -0 -0 -0 -0 -0 -0 -0
-0 -0 -0 -0 -0 -0 -0 -0 -0 -0 -0 -1 -0 -0 -0 -0 -0 -0 -0 -0 -0 -0 -0 -0 -0 -0 -0 -0 -0 -0 -0 -0 -0 -0 -0 -0 -0 -0
-0 -0 -0 -0 -0 -0 -0 -0 -0 -0 -0 -0 -0 -0 -0 -0 -0 -0 -0 -0 -0 -0 -0 -0 -0 -0 -0 -0 -0 -0 -0 -0 -0 -0 -0 -0 -0 -0
Wind_Speed
36 35 33 35 35 34 30 27 27 30 27 24 22 18 17 16 15 14 14 14 14 15 17 19 21 22 22 20 19 23 27 24 15 14 14 15 17 18
38 38 37 42 36 37 35 32 31 32 33 25 24 20 18 17 17 16 16 15 16 18 19 21 23 24 21 19 20 21 23 24 21 15 14 13 14 14
37 36 34 37 38 35 34 35 34 32 33 29 25 22 20 19 19 19 18 18 19 19 20 22 25 25 22 19 18 21 23 24 21 19 12 9 10 7
37 37 39 36 40 35 32 34 33 31 31 31 28 25 24 22 21 21 21 20 22 21 21 23 24 24 21 19 18 17 20 22 21 18 11 4 6 8
44 42 41 35 36 33 33 34 33 32 32 32 30 27 27 24 25 24 23 24 23 23 22 24 24 22 20 19 18 16 17 19 17 14 8 6 4 8
44 40 40 36 36 34 33 33 31 33 32 31 31 29 29 27 26 26 28 26 26 23 24 24 22 19 18 18 17 15 13 15 14 10 11 13 9 7
37 37 34 31 35 32 32 31 31 32 32 33 33 32 31 30 28 29 29 27 26 26 27 25 22 19 17 17 17 16 14 14 13 10 10 12 8 4
29 28 33 33 32 32 32 30 30 31 33 35 33 34 32 30 26 28 30 30 33 25 25 24 21 19 18 15 16 17 13 12 10 10 12 11 6 4
23 32 31 30 31 32 34 34 32 31 31 31 33 34 33 32 31 31 29 32 30 25 24 24 19 19 17 15 13 12 12 10 10 10 7 6 6 6
26 27 29 31 31 31 33 32 32 34 32 33 33 34 33 31 30 31 28 28 27 25 21 23 19 18 15 15 13 11 9 9 7 6 5 5 7 8
22 26 31 32 30 28 27 29 31 35 33 32 32 32 30 29 29 28 27 24 31 26 19 22 18 17 16 16 13 11 9 6 5 4 4 7 8 9
23 25 24 25 28 27 20 24 26 27 28 28 29 27 25 28 27 27 26 26 22 22 21 19 17 16 19 18 14 10 7 6 7 6 5 6 8 12
22 23 26 29 30 31 30 28 31 31 30 31 33 31 27 26 22 24 23 24 23 24 16 16 19 18 19 17 10 9 7 7 8 8 9 11 13 12
26 27 29 32 33 34 34 34 33 31 28 28 28 28 27 28 27 22 18 19 18 21 17 19 20 18 17 17 13 10 11 12 9 7 8 10 14 16
29 31 34 35 36 36 36 35 34 30 30 31 31 31 29 26 21 18 18 16 18 17 14 15 17 15 15 14 14 14 14 14 12 12 11 12 14 15
35 35 36 37 37 38 40 38 35 33 34 35 34 30 28 26 26 23 24 21 21 20 16 15 16 16 17 18 19 17 17 15 13 13 14 15 15 15
39 37 38 40 42 43 44 43 40 38 39 37 37 36 32 31 31 27 24 23 25 21 19 16 15 16 18 17 17 14 11 13 15 17 17 18 19 19
39 41 42 43 44 45 46 46 44 43 43 42 41 39 37 34 33 32 31 28 24 22 18 18 12 13 18 17 12 13 12 16 16 16 17 19 21 20
41 43 45 46 46 45 46 46 46 43 41 43 43 41 41 43 41 38 31 28 27 21 20 14 14 16 16 16 13 10 11 15 16 16 17 17 20 18
42 44 45 44 45 46 46 46 44 42 40 39 41 41 38 35 35 40 40 34 28 23 20 20 15 15 16 13 12 13 10 11 12 14 15 15 17 20
44 44 44 45 45 44 43 41 41 41 40 39 39 38 39 39 38 35 37 33 27 25 22 22 15 12 12 11 13 14 11 8 11 11 15 16 18 18
42 42 43 42 42 41 39 36 36 38 38 38 38 37 35 40 40 37 33 32 29 27 20 20 15 14 16 14 15 16 13 9 9 10 12 15 16 18
39 40 41 41 39 37 36 34 35 39 38 37 38 37 33 38 40 34 27 25 24 20 20 14 14 16 16 14 14 13 10 11 10 12 16 15 15 14
Wind_Direction
246 251 251 252 254 254 259 264 268 272 277 280 283 281 283 290 297 303 308 316 323 329 332 335 334 336 337 335 333 327 322 326 333 339 347 355 355 358
247 251 253 251 254 254 256 261 267 271 277 282 281 285 281 288 294 297 303 310 315 320 326 330 331 333 337 336 331 328 324 323 328 333 339 350 356 1
246 251 251 249 253 254 256 258 264 269 273 280 283 283 281 284 289 293 300 305 310 314 321 325 327 330 332 334 335 328 324 322 324 325 336 351 352 7
247 251 252 253 253 254 254 256 261 265 271 274 278 279 282 281 285 288 294 300 305 310 315 321 324 328 331 332 335 333 326 323 323 323 336 354 358 2
248 252 254 255 250 253 254 257 260 265 268 273 276 280 283 281 284 287 291 296 300 305 312 317 320 324 326 328 330 331 329 325 324 330 337 333 348 339
249 254 254 253 252 252 255 257 260 263 266 270 274 278 280 282 279 283 287 291 296 302 307 313 318 320 323 325 326 329 329 327 325 328 328 320 315 312
251 251 251 252 255 257 258 259 260 263 266 267 273 276 277 278 272 283 285 289 294 296 301 305 311 313 319 322 324 327 330 329 327 326 328 320 317 199
252 252 255 257 262 263 263 264 263 264 266 268 269 271 270 273 278 279 282 285 287 289 296 299 306 307 315 321 321 324 328 335 340 341 332 329 325 307
261 260 262 266 268 269 270 270 269 268 266 268 269 270 272 272 273 276 275 285 282 290 293 294 301 304 310 315 318 323 326 331 333 332 350 357 338 323
267 270 273 278 276 276 278 277 274 272 270 272 271 273 273 276 270 272 274 283 284 292 290 289 298 299 306 310 314 313 316 325 335 344 349 343 330 320
289 284 283 283 285 285 283 281 279 276 277 274 273 274 271 269 269 273 273 270 281 281 273 287 290 295 298 302 308 313 312 318 327 329 334 325 321 315
304 304 307 306 304 303 278 277 270 274 275 275 276 272 265 265 261 262 265 258 272 277 273 270 279 289 296 298 305 318 323 320 322 324 326 315 312 309
325 321 318 314 310 307 301 294 290 288 282 279 278 274 268 261 251 263 263 261 263 272 275 268 279 284 293 304 311 313 321 319 318 318 322 315 307 304
329 325 321 317 314 312 309 302 296 292 289 284 280 274 265 265 259 253 249 256 264 272 267 273 285 284 287 293 304 305 307 307 314 314 315 312 304 300
328 323 319 317 314 311 309 306 300 294 287 282 278 272 267 265 251 248 253 252 263 271 267 274 278 280 285 291 296 297 298 302 305 308 312 308 303 300
326 322 318 315 313 310 308 304 296 291 285 283 281 277 271 258 248 247 249 251 258 263 271 273 271 270 279 284 287 295 296 304 305 306 303 303 302 300
330 327 323 319 314 310 306 302 295 289 286 284 279 273 267 256 247 248 249 249 259 255 260 267 274 278 283 288 289 292 293 298 300 300 302 301 298 297
333 329 325 322 318 314 310 304 298 290 285 283 277 273 267 257 251 250 251 252 252 252 253 258 262 279 286 294 290 295 297 295 296 298 299 298 297 296
338 333 328 324 321 318 313 306 300 295 290 281 276 273 268 260 255 251 249 249 250 254 255 250 252 268 278 287 306 290 298 295 295 297 298 298 300 304
342 336 333 329 325 320 315 310 304 297 290 285 279 270 267 262 255 252 249 248 255 257 247 244 245 259 276 291 304 306 291 302 300 301 303 307 308 305
343 340 337 332 328 325 320 314 308 299 291 284 280 273 265 259 257 253 248 246 245 249 242 246 256 266 282 299 301 301 306 298 305 307 305 305 305 304
347 345 341 338 334 330 325 321 314 306 294 284 279 274 267 259 253 249 246 240 243 247 247 254 251 261 268 281 287 289 300 308 304 306 306 304 306 302
352 349 347 346 341 337 331 326 316 305 295 285 277 272 269 259 251 251 244 239 241 237 238 238 249 259 269 277 282 288 300 299 306 306 301 299 299 300